[[{"header":{"parameterUnit":"m.s-1","parameterCategory":1,"la1":30.2991,"la2":30.254,"lo1":-89.0895,"lo2":-89.0444,"dy":0.0017,"dx":0.0017,"nx":28,"ny":28,"refTime":"2023-10-21T03:00:00:Z","depth":0,"parameterNumber":2,"parameterNumberName":"U-component_of_WINDS"},"data":[0,0,0,0,0,0,0,0,0,0,0,0,0,0,0,0,0,0,0,0,0,0,0,0,0,0,0,0,0,0,0,0,0,0,0,0,0,0,0,0,0,0,0,0,0,0,0,0,0,0,0,0,0,0,0,0,0,0,3.6704,3.6704,0,3.6796,3.6797,3.6798,3.6722,3.6719,3.6716,3.6713,3.6811,3.6816,3.6822,0,0,0,0,0,0,0,0,0,0,0,0,0,3.6467,3.6472,3.6703,3.6705,3.6706,3.6796,3.6797,3.6798,3.6723,3.6719,3.6715,3.6711,3.6809,3.6816,3.6822,0,0,0,0,0,0,0,0,0,0,0,0,0,3.6566,3.6474,3.6703,3.6679,3.6677,3.6795,3.6797,3.6799,3.6723,3.6719,3.6714,3.6709,3.6807,3.6815,3.6823,3.6971,0,0,3.6849,3.6853,0,0,0,0,0,0,0,0,3.656,3.6575,3.6681,3.6681,3.6679,3.6742,3.675,3.6857,3.6725,3.6706,3.6713,3.6707,3.6792,3.6802,3.6829,3.6976,3.698,3.685,3.6855,3.6858,3.6861,0,0,0,0,0,0,0,3.6554,3.657,3.674,3.6683,3.6682,3.6665,3.6674,3.677,3.6775,3.6707,3.6702,3.6714,3.6791,3.6822,3.6831,3.6981,3.6849,3.6857,3.6862,3.6865,3.7258,3.7263,0,0,0,0,0,0,3.6549,3.6565,3.6737,3.6743,3.6607,3.6673,3.6683,3.6727,3.6774,3.6776,3.6718,3.671,3.681,3.6822,3.6834,3.7013,3.6858,3.6866,3.6871,3.7253,3.7259,3.7265,0,0,0,0,0,0,3.6544,3.6565,3.6733,3.6653,3.6673,3.6682,3.6733,3.6731,3.6762,3.6782,3.6783,3.6748,3.6806,3.6823,3.6938,3.7016,3.687,3.6878,3.7247,3.7255,3.7262,3.7371,0,0,0,0,0,0,3.6537,3.6563,3.6618,3.6654,3.6677,3.6834,3.6737,3.6737,3.6776,3.6767,3.681,3.6813,3.6804,3.6926,3.6947,3.7025,3.6884,3.724,3.725,3.726,3.7361,3.7382,3.74,0,0,0,0,0,3.6529,3.6645,3.6621,3.6642,3.6746,3.6839,3.6852,3.6838,3.6783,3.6839,3.6852,3.6811,3.7004,3.6939,3.6961,3.7043,3.7235,3.7247,3.7259,3.7352,3.7378,3.7399,0,0,0,0,0,0,3.6618,3.6649,3.6623,3.6754,3.6794,3.6826,3.6896,3.6866,3.6924,3.6913,3.6894,3.6905,3.7027,3.7046,3.6973,3.719,3.7111,3.7128,3.7173,3.7198,3.7217,3.7211,3.6891,0,0,0,0,0,3.6652,3.6724,3.6748,3.6861,3.6883,3.6886,3.6926,3.6912,3.6954,3.6971,3.6992,3.7036,3.7106,3.7153,3.7219,3.7363,3.7373,3.743,3.745,3.7466,3.7482,3.7563,3.759,3.7305,3.7305,3.7305,0,0,3.6725,3.6751,3.6797,3.688,3.6909,3.6986,3.6901,3.6985,3.7043,3.6984,3.7095,3.7113,3.716,3.7292,3.7351,3.7312,3.7563,3.7482,3.7494,3.7501,3.7578,3.7605,3.7629,3.7313,3.7312,3.7311,0,0,3.6896,3.6922,3.702,3.7053,3.7099,3.7101,3.7125,3.7162,3.7172,3.7283,3.7242,3.7311,3.7431,3.7468,3.7502,3.7692,3.7658,3.7714,3.7817,3.7897,3.7919,3.7939,3.8009,3.8034,3.7729,3.7729,3.773,0,3.6981,3.7093,3.7075,3.7163,3.7202,3.7153,3.7254,3.7286,3.7353,3.7382,3.7336,3.7489,3.7517,3.7659,3.7705,3.7734,3.7763,3.7709,3.7917,3.7937,3.7955,3.8022,3.8048,3.7736,3.7735,3.7735,3.7734,0,3.7196,3.7275,3.7349,3.7414,3.7462,3.7556,3.7555,3.7605,3.7588,3.7596,3.7712,3.7745,3.7818,3.785,3.7834,3.7991,3.7965,3.7919,3.7839,3.7989,3.8052,3.8077,3.7746,3.7743,3.7741,3.774,0,0,3.7424,3.748,3.7508,3.7539,3.7588,3.7649,3.7743,3.7814,3.7859,3.7907,3.7987,3.8092,3.8051,3.809,3.8078,3.8148,3.83,3.8093,3.8094,3.8133,3.8478,3.8514,3.8543,3.8277,3.8282,3.8286,3.8475,0,3.76,3.7761,3.775,3.7903,3.7978,3.7934,3.8016,3.8056,3.8067,3.8134,3.8146,3.8222,3.816,3.8184,3.8251,3.8267,3.8369,3.8253,3.8354,3.8358,3.8345,3.8575,3.8613,3.879,3.8499,3.8503,3.8506,0,3.7825,3.7882,3.8043,3.8084,3.8114,3.8188,3.8254,3.8318,3.8364,3.8367,3.8413,3.839,3.8488,3.8405,3.8541,3.8463,3.8503,3.8518,3.8525,3.8535,3.8442,3.8594,3.8845,3.8873,3.8544,3.8541,3.8538,0,3.7979,3.8095,3.8207,3.8234,3.8284,3.8338,3.8361,3.8403,3.8447,3.8506,3.8535,3.8604,3.8643,3.8698,3.8696,3.8635,3.8836,3.8751,3.8843,3.8844,3.8888,3.8886,3.9152,3.8912,3.8911,3.8911,3.891,0,3.8177,3.8278,3.8277,3.8346,3.8459,3.8446,3.8559,3.8577,3.8615,3.8689,3.8655,3.8726,3.8718,3.879,3.8789,3.8904,3.8921,3.8928,3.8927,3.8932,3.8932,3.8959,3.8948,3.8918,3.8916,3.8915,3.8914,0,3.8367,3.8371,3.849,3.8529,3.8541,3.8623,3.8656,3.8724,3.8732,3.8826,3.8848,3.8862,3.8945,3.8949,3.9044,3.9044,3.9185,3.9169,3.9169,3.9167,3.9259,3.9251,3.9554,3.9594,3.9326,3.9329,3.9331,0,3.8494,3.8571,3.8618,3.8664,3.8691,3.8767,3.8813,3.8804,3.8854,3.8914,3.8975,3.9055,3.9118,3.9254,3.9274,3.9348,3.9335,3.9437,3.9346,3.935,3.934,3.9336,3.9345,3.9454,3.9457,3.946,3.9462,0,3.8719,3.8718,3.8784,3.8854,3.8909,3.8963,3.9013,3.9053,3.9051,3.9109,3.9193,3.9243,3.9341,3.9423,3.9495,3.9522,3.9494,3.949,3.9516,3.9522,3.952,3.9525,3.9219,3.9483,3.9481,3.9479,3.9478,3.9477,3.8883,3.8951,3.8995,3.9072,3.9109,3.9157,3.9223,3.9241,3.931,3.9389,3.9381,3.9476,3.9524,3.9618,3.9651,3.9727,3.9692,3.9729,3.9739,3.9748,3.9759,3.9507,3.974,3.9739,3.9739,3.9738,3.9738,0,3.9109,3.9136,3.9207,3.9278,3.934,3.9306,3.9361,3.9415,3.9498,3.9545,3.9609,3.9708,3.9787,3.9815,3.9893,3.9948,3.9938,3.9969,3.9966,3.9973,3.9784,3.9755,3.9977,3.9977,3.9977,3.9977,3.9977,3.9977,3.9234,3.9347,3.9352,3.9485,3.9512,3.9604,3.9638,3.9684,3.9722,3.9834,3.9899,3.9916,3.9957,4.0038,4.011,4.0116,4.0148,4.0186,4.0187,4.001,3.9986,3.9963,3.9936,4.0192,4.0193,4.037,4.0372,4.0373]},{"header":{"parameterUnit":"m.s-1","parameterCategory":1,"la1":30.2991,"la2":30.254,"lo1":-89.0895,"lo2":-89.0444,"dy":0.0017,"dx":0.0017,"nx":28,"ny":28,"refTime":"2023-10-21T03:00:00:Z","depth":0,"parameterNumber":3,"parameterNumberName":"V-component_of_WINDS"},"data":[0,0,0,0,0,0,0,0,0,0,0,0,0,0,0,0,0,0,0,0,0,0,0,0,0,0,0,0,0,0,0,0,0,0,0,0,0,0,0,0,0,0,0,0,0,0,0,0,0,0,0,0,0,0,0,0,0,0,-0.8929,-0.8929,0,-0.8909,-0.8909,-0.8908,-0.891,-0.8911,-0.8911,-0.8911,-0.8887,-0.8886,-0.8885,0,0,0,0,0,0,0,0,0,0,0,0,0,-0.8968,-0.8967,-0.8929,-0.8929,-0.8929,-0.8909,-0.8909,-0.8908,-0.891,-0.8911,-0.8911,-0.8911,-0.8888,-0.8887,-0.8885,0,0,0,0,0,0,0,0,0,0,0,0,0,-0.895,-0.8967,-0.8929,-0.8928,-0.8927,-0.8909,-0.8909,-0.8908,-0.891,-0.8911,-0.8911,-0.8912,-0.8888,-0.8887,-0.8885,-0.8867,0,0,-0.8881,-0.888,0,0,0,0,0,0,0,0,-0.8951,-0.8948,-0.8928,-0.8928,-0.8927,-0.8913,-0.8913,-0.8894,-0.891,-0.8917,-0.8911,-0.8912,-0.8895,-0.8893,-0.8888,-0.8866,-0.8865,-0.8881,-0.888,-0.8879,-0.8879,0,0,0,0,0,0,0,-0.8952,-0.8949,-0.8921,-0.8928,-0.8927,-0.8927,-0.8925,-0.891,-0.8903,-0.8916,-0.8916,-0.8914,-0.8895,-0.889,-0.8888,-0.8864,-0.8881,-0.888,-0.8879,-0.8878,-0.8826,-0.8826,0,0,0,0,0,0,-0.8954,-0.895,-0.8922,-0.8921,-0.894,-0.8926,-0.8924,-0.8917,-0.8903,-0.8902,-0.8913,-0.8914,-0.8892,-0.8889,-0.8887,-0.8865,-0.8879,-0.8878,-0.8877,-0.8827,-0.8826,-0.8825,0,0,0,0,0,0,-0.8955,-0.8951,-0.8923,-0.8935,-0.8932,-0.8925,-0.8917,-0.8916,-0.8911,-0.8902,-0.89,-0.8909,-0.8892,-0.8889,-0.8872,-0.8864,-0.8877,-0.8876,-0.8827,-0.8827,-0.8826,-0.882,0,0,0,0,0,0,-0.8956,-0.8952,-0.8945,-0.8935,-0.8931,-0.8909,-0.8917,-0.8915,-0.8909,-0.8909,-0.8897,-0.8896,-0.8892,-0.8874,-0.8871,-0.8862,-0.8875,-0.8828,-0.8827,-0.8826,-0.8821,-0.8819,-0.8817,0,0,0,0,0,-0.8957,-0.8943,-0.8945,-0.8941,-0.8923,-0.8908,-0.8906,-0.8903,-0.8908,-0.8901,-0.8895,-0.8896,-0.8866,-0.8872,-0.8869,-0.8859,-0.8829,-0.8827,-0.8826,-0.8821,-0.8819,-0.8817,0,0,0,0,0,0,-0.8951,-0.8942,-0.8943,-0.8926,-0.8918,-0.8909,-0.89,-0.8901,-0.889,-0.8891,-0.8887,-0.8884,-0.8868,-0.8862,-0.887,-0.8841,-0.8848,-0.8846,-0.8845,-0.8843,-0.8842,-0.8843,-0.8874,0,0,0,0,0,-0.8948,-0.8938,-0.893,-0.8915,-0.8911,-0.8906,-0.89,-0.8899,-0.889,-0.8886,-0.8879,-0.887,-0.8858,-0.8851,-0.8839,-0.882,-0.8818,-0.8812,-0.881,-0.8809,-0.8807,-0.8797,-0.8794,-0.8822,-0.8822,-0.8822,0,0,-0.894,-0.8934,-0.8928,-0.8914,-0.8908,-0.8897,-0.8903,-0.8891,-0.8883,-0.8884,-0.8868,-0.8863,-0.8852,-0.8834,-0.8826,-0.8829,-0.8799,-0.8808,-0.8807,-0.8805,-0.8795,-0.8793,-0.879,-0.8821,-0.8821,-0.8821,0,0,-0.8921,-0.8916,-0.8903,-0.8897,-0.8888,-0.8885,-0.8882,-0.8873,-0.887,-0.8855,-0.8855,-0.8845,-0.8825,-0.8818,-0.8811,-0.8792,-0.8792,-0.8788,-0.8779,-0.8769,-0.8767,-0.8765,-0.8757,-0.8755,-0.8786,-0.8786,-0.8786,0,-0.8913,-0.8897,-0.8896,-0.8885,-0.8878,-0.8881,-0.8868,-0.8862,-0.8849,-0.8844,-0.8848,-0.8824,-0.8817,-0.8798,-0.8793,-0.8788,-0.8784,-0.8789,-0.8767,-0.8765,-0.8764,-0.8756,-0.8754,-0.8786,-0.8786,-0.8786,-0.8786,0,-0.8887,-0.8876,-0.8867,-0.8857,-0.885,-0.8837,-0.8834,-0.8827,-0.8827,-0.8823,-0.8807,-0.8799,-0.8787,-0.8782,-0.8781,-0.8763,-0.8765,-0.8768,-0.8775,-0.8761,-0.8754,-0.8751,-0.8785,-0.8785,-0.8785,-0.8786,0,0,-0.8862,-0.8852,-0.8849,-0.8844,-0.8835,-0.8827,-0.8815,-0.8804,-0.8798,-0.8789,-0.8779,-0.8763,-0.8766,-0.8759,-0.8757,-0.8749,-0.8733,-0.8753,-0.8752,-0.8749,-0.8713,-0.871,-0.8707,-0.8734,-0.8734,-0.8733,-0.8714,0,-0.8842,-0.8821,-0.8821,-0.8802,-0.8792,-0.8794,-0.8784,-0.8777,-0.8774,-0.8764,-0.8761,-0.8749,-0.8754,-0.875,-0.8742,-0.8737,-0.8726,-0.8739,-0.8723,-0.8723,-0.8725,-0.8703,-0.87,-0.8682,-0.8711,-0.871,-0.871,0,-0.8815,-0.8807,-0.8787,-0.8781,-0.8777,-0.8767,-0.8758,-0.8749,-0.8741,-0.874,-0.8733,-0.8733,-0.872,-0.8728,-0.871,-0.8719,-0.8713,-0.871,-0.8709,-0.8706,-0.8715,-0.87,-0.8676,-0.8673,-0.8706,-0.8706,-0.8707,0,-0.8798,-0.8783,-0.8769,-0.8765,-0.8757,-0.8751,-0.8747,-0.874,-0.8734,-0.8725,-0.8721,-0.8711,-0.8705,-0.8697,-0.8694,-0.87,-0.8677,-0.8684,-0.8674,-0.8674,-0.8668,-0.8668,-0.8642,-0.8666,-0.8666,-0.8666,-0.8666,0,-0.8775,-0.8762,-0.8761,-0.8753,-0.8739,-0.8739,-0.8726,-0.8722,-0.8716,-0.8707,-0.8709,-0.87,-0.8697,-0.8687,-0.8685,-0.8671,-0.8668,-0.8666,-0.8666,-0.8666,-0.8666,-0.8661,-0.8662,-0.8665,-0.8665,-0.8665,-0.8665,0,-0.8753,-0.8752,-0.8737,-0.8732,-0.873,-0.872,-0.8715,-0.8707,-0.8705,-0.8693,-0.869,-0.8686,-0.8675,-0.8672,-0.8658,-0.8657,-0.864,-0.8641,-0.8643,-0.8643,-0.8633,-0.8633,-0.8602,-0.8597,-0.8624,-0.8624,-0.8624,0,-0.8738,-0.8729,-0.8723,-0.8717,-0.8714,-0.8704,-0.8699,-0.8698,-0.8692,-0.8684,-0.8676,-0.8666,-0.8657,-0.864,-0.8635,-0.8625,-0.8625,-0.8615,-0.8623,-0.8624,-0.8624,-0.8625,-0.8624,-0.8613,-0.8612,-0.8612,-0.8612,0,-0.8711,-0.8711,-0.8703,-0.8695,-0.8689,-0.8682,-0.8676,-0.8671,-0.867,-0.8663,-0.8653,-0.8646,-0.8633,-0.8623,-0.8613,-0.8608,-0.861,-0.861,-0.8607,-0.8606,-0.8607,-0.8606,-0.8638,-0.861,-0.861,-0.861,-0.861,-0.861,-0.8691,-0.8684,-0.8679,-0.867,-0.8666,-0.866,-0.8653,-0.865,-0.8642,-0.8632,-0.8632,-0.8621,-0.8614,-0.8601,-0.8596,-0.8587,-0.859,-0.8586,-0.8585,-0.8583,-0.8582,-0.861,-0.8585,-0.8585,-0.8585,-0.8585,-0.8586,0,-0.8664,-0.8662,-0.8654,-0.8646,-0.8639,-0.8643,-0.8637,-0.863,-0.8621,-0.8615,-0.8607,-0.8595,-0.8586,-0.8581,-0.8571,-0.8565,-0.8565,-0.8562,-0.8562,-0.8561,-0.858,-0.8584,-0.8562,-0.8562,-0.8562,-0.8562,-0.8562,-0.8562,-0.8649,-0.8637,-0.8637,-0.8622,-0.8619,-0.8609,-0.8605,-0.86,-0.8595,-0.8583,-0.8575,-0.8573,-0.8567,-0.8558,-0.8549,-0.8548,-0.8544,-0.854,-0.8539,-0.8557,-0.856,-0.8562,-0.8565,-0.8539,-0.8539,-0.8521,-0.852,-0.852]}]]